Flag for Ukraine Weather past 2 weeks in Kyiv, Ukraine

Now
55 °F

Sunny.


Feels Like: 53 °F
Forecast: 44 / 58 °F
Wind: 10 mph from Southeast

Location: Kyiv

Current Time: Mar 27, 2015 at 12:18:48 PM

Latest Report: Mar 27, 2015 at 12:00 PM


Visibility: 10 mi

Pressure: 29.98 "Hg

Humidity: 47%

Dew point: 36 °F

Location of KyivLocation

Historic Weather in Kyiv — Graph

°F

Kyiv temperature yesterday

Maximum temperature yesterday: 55 °F (at 2:00 PM)
Minimum temperature yesterday: 37 °F (at 4:30 AM)
Average temperature yesterday: 46 °F

Past Weeks' High & Low Weather Summary

 TemperatureHumidityPressure
High59 °F (Mar 25, 3:00 PM)100% (Mar 13, 6:30 AM)30.83 "Hg (Mar 13, 6:30 AM)
Low21 °F (Mar 23, 5:00 AM)23% (Mar 17, 1:00 PM)29.83 "Hg (Mar 22, 1:30 AM)
Average40 °F64%30.26 "Hg
* Reported Mar 12 11:00 AM — Mar 27 11:00 AM, Kyiv, Weather by CustomWeather, © 2015

Note: Actual official high and low records may vary slightly from our data, if they occured in-between our weather recording intervals... More about our weather records

Advertising

Kyiv weather history for previous 24 hours

 ConditionsComfort  
Time TempWeatherWind HumidityBarometerVisibility
11:00 AM
Fri, Mar 27
52 °FSunny.10 mph54%29.98 "Hg10 mi
10:30 AM50 °FPassing clouds.8 mph58%29.98 "HgN/A
10:00 AM50 °FPassing clouds.10 mph58%29.98 "HgN/A
9:30 AM48 °FSunny.10 mph58%30.01 "Hg10 mi
9:00 AM48 °FBroken clouds.8 mph58%30.01 "HgN/A
8:30 AM46 °FSunny.8 mph62%29.98 "Hg10 mi
8:00 AM46 °FSunny.8 mph62%29.98 "Hg10 mi
7:30 AM45 °FSunny.6 mph66%29.98 "Hg10 mi
7:00 AM45 °FPartly sunny.6 mph66%29.98 "HgN/A
6:30 AM45 °FPartly sunny.6 mph66%29.98 "HgN/A
6:00 AM45 °FPartly sunny.6 mph66%29.98 "HgN/A
5:00 AM45 °FClear.6 mph66%29.98 "Hg10 mi
4:30 AM46 °FClear.6 mph62%29.98 "Hg10 mi
4:00 AM46 °FPassing clouds.6 mph62%29.98 "HgN/A
3:30 AM46 °FClear.6 mph62%29.98 "Hg10 mi
3:00 AM46 °FClear.6 mph62%30.01 "Hg10 mi
2:30 AM48 °FClear.6 mph58%30.01 "Hg10 mi
2:00 AM48 °FClear.6 mph58%30.01 "Hg10 mi
1:30 AM48 °FClear.6 mph62%30.01 "Hg10 mi
1:00 AM46 °FClear.6 mph66%30.01 "Hg10 mi
12:30 AM46 °FClear.3 mph66%30.04 "Hg10 mi
12:00 AM48 °FClear.3 mph58%30.04 "Hg10 mi
11:30 PM
Thu, Mar 26
48 °FClear.6 mph58%30.04 "Hg10 mi
10:30 PM46 °FClear.3 mph62%30.04 "Hg10 mi
10:00 PM48 °FClear.3 mph58%30.04 "Hg10 mi
9:30 PM48 °FClear.6 mph58%30.01 "Hg10 mi
9:00 PM50 °FPassing clouds.6 mph54%30.01 "HgN/A
8:30 PM50 °FClear.6 mph54%30.04 "Hg10 mi
8:00 PM50 °FClear.3 mph54%30.04 "HgN/A
7:30 PM50 °FClear.6 mph54%30.04 "Hg10 mi
7:00 PM52 °FClear.6 mph50%30.04 "Hg10 mi
6:30 PM52 °FClear.6 mph50%30.04 "Hg10 mi
6:00 PM54 °FSunny.6 mph44%30.04 "Hg10 mi
5:30 PM54 °FSunny.6 mph44%30.04 "Hg10 mi
5:00 PM54 °FPassing clouds.8 mph41%30.04 "HgN/A
4:30 PM54 °FPassing clouds.6 mph41%30.04 "HgN/A
4:00 PM54 °FPassing clouds.10 mph38%30.07 "HgN/A
3:30 PM55 °FPassing clouds.8 mph38%30.07 "HgN/A
3:00 PM55 °FPassing clouds.8 mph38%30.07 "HgN/A
2:30 PM55 °FPassing clouds.6 mph38%30.07 "HgN/A
2:00 PM55 °FPassing clouds.8 mph41%30.07 "HgN/A
1:30 PM52 °FSunny.8 mph50%30.07 "Hg10 mi
1:00 PM52 °FPassing clouds.8 mph50%30.09 "HgN/A
12:30 PM52 °FPassing clouds.6 mph47%30.09 "HgN/A
12:00 PM48 °FPassing clouds.8 mph50%30.09 "HgN/A
Weather by CustomWeather, © 2015

See weather overviewHow to use our weather pages